FW6820 Weather Reports


Display with metric or nautical units.
time (UTC)temp
F
wind
direction
speed
MPH
gust
MPH
rain 1hr
in
rain 24hr
in
rain mn
in
humidity
%
barometer
mb
20200401074042 69 95 1.0 3.0 0.00 0.00 0.00 77 1012.2
20200401073617 69 95 1.0 3.0 0.00 0.00 0.00 77 1012.2
20200401073109 69 94 1.0 3.0 0.00 0.00 0.00 77 1012.2
20200401072540 69 107 1.0 4.0 0.00 0.00 0.00 76 1012.2
20200401072047 69 108 2.0 6.0 0.00 0.00 0.00 76 1012.3
20200401071714 69 85 3.0 6.0 0.00 0.00 0.00 76 1012.4
20200401071047 69 82 1.0 4.0 0.00 0.00 0.00 76 1012.5
20200401070553 69 91 2.0 7.0 0.00 0.00 0.00 75 1012.5
20200401070121 69 91 1.0 6.0 0.00 0.00 0.00 75 1012.5
20200401065536 69 72 2.0 6.0 0.00 0.00 0.00 75 1012.6
20200401065055 69 86 2.0 6.0 0.00 0.00 0.00 75 1012.7
20200401064653 70 84 3.0 6.0 0.00 0.00 0.00 74 1012.7
20200401064036 70 76 1.0 6.0 0.00 0.00 0.00 74 1012.8
20200401063536 70 100 2.0 6.0 0.00 0.00 0.00 74 1012.8
20200401063126 70 88 2.0 8.0 0.00 0.00 0.00 74 1012.9
20200401062533 70 82 3.0 8.0 0.00 0.00 0.00 73 1012.9
20200401062034 70 76 3.0 7.0 0.00 0.00 0.00 73 1013.0
20200401061614 70 100 3.0 10.0 0.00 0.00 0.00 73 1013.1
20200401061033 70 94 5.0 10.0 0.00 0.00 0.00 73 1013.0
20200401060530 70 87 4.0 9.0 0.00 0.00 0.00 73 1012.9
20200401060102 70 92 4.0 9.0 0.00 0.00 0.00 73 1012.9
20200401055533 70 103 5.0 9.0 0.00 0.00 0.00 72 1013.0
20200401055027 70 100 3.0 8.0 0.00 0.00 0.00 72 1013.0
20200401054547 70 90 3.0 9.0 0.00 0.00 0.00 72 1013.2
20200401054032 70 102 5.0 9.0 0.00 0.00 0.00 72 1013.1
20200401053526 70 104 4.0 8.0 0.00 0.00 0.00 71 1013.3
20200401053026 71 111 4.0 7.0 0.00 0.00 0.00 71 1013.3
20200401052523 71 107 3.0 8.0 0.00 0.00 0.00 70 1013.4
20200401052030 71 98 4.0 9.0 0.00 0.00 0.00 70 1013.4
20200401051625 71 90 2.0 8.0 0.00 0.00 0.00 70 1013.4
20200401051022 71 92 4.0 8.0 0.00 0.00 0.00 69 1013.5
20200401050521 71 91 4.0 8.0 0.00 0.00 0.00 69 1013.6
20200401050046 71 83 4.0 9.0 0.00 0.00 0.00 68 1013.7
20200401045522 71 88 6.0 10.0 0.00 0.00 0.00 68 1013.6
20200401045018 71 98 6.0 10.0 0.00 0.00 0.00 67 1013.6
20200401044540 72 103 5.0 10.0 0.00 0.00 0.00 67 1013.6
20200401044018 72 104 5.0 11.0 0.00 0.00 0.00 66 1013.6
20200401043517 72 106 5.0 11.0 0.00 0.00 0.00 66 1013.6
20200401043028 72 101 6.0 13.0 0.00 0.00 0.00 65 1013.6
20200401042520 72 98 5.0 13.0 0.00 0.00 0.00 65 1013.6
20200401042015 72 107 3.0 13.0 0.00 0.00 0.00 64 1013.7
20200401041524 72 101 7.0 13.0 0.00 0.00 0.00 64 1013.6
20200401041014 72 107 7.0 12.0 0.00 0.00 0.00 64 1013.7
20200401040514 73 91 8.0 11.0 0.00 0.00 0.00 64 1013.7
20200401040034 73 109 7.0 12.0 0.00 0.00 0.00 63 1013.7
20200401035513 73 97 7.0 12.0 0.00 0.00 0.00 61 1013.6
20200401035011 73 123 4.0 11.0 0.00 0.00 0.00 61 1013.6
20200401034537 74 78 4.0 12.0 0.00 0.00 0.00 60 1013.6
20200401034011 74 103 4.0 9.0 0.00 0.00 0.00 59 1013.7
20200401033515 74 108 5.0 12.0 0.00 0.00 0.00 59 1013.6
20200401033013 74 84 4.0 12.0 0.00 0.00 0.00 59 1013.5
20200401032516 74 90 8.0 13.0 0.00 0.00 0.00 58 1013.4
20200401032009 74 96 7.0 13.0 0.00 0.00 0.00 58 1013.4
20200401031511 74 71 7.0 14.0 0.00 0.00 0.00 59 1013.3
20200401031013 75 105 8.0 14.0 0.00 0.00 0.00 59 1013.3
20200401030524 75 92 7.0 11.0 0.00 0.00 0.00 58 1013.2
20200401030013 75 77 5.0 11.0 0.00 0.00 0.00 55 1013.2
20200401025513 76 103 5.0 12.0 0.00 0.00 0.00 57 1013.1
20200401025024 76 105 7.0 12.0 0.00 0.00 0.00 56 1013.1
20200401024530 76 86 5.0 10.0 0.00 0.00 0.00 56 1013.0
20200401024007 76 92 3.0 11.0 0.00 0.00 0.00 54 1012.9
20200401023520 77 91 6.0 12.0 0.00 0.00 0.00 53 1012.8
20200401023009 77 79 4.0 12.0 0.00 0.00 0.00 53 1012.8
20200401022511 77 60 7.0 11.0 0.00 0.00 0.00 53 1012.7
20200401022012 77 101 5.0 11.0 0.00 0.00 0.00 53 1012.6
20200401021512 77 92 6.0 12.0 0.00 0.00 0.00 53 1012.6
20200401021009 78 80 6.0 13.0 0.00 0.00 0.00 52 1012.5
20200401020511 78 70 6.0 14.0 0.00 0.00 0.00 52 1012.5
20200401020006 78 82 9.0 14.0 0.00 0.00 0.00 51 1012.4
20200401015506 78 82 6.0 15.0 0.00 0.00 0.00 50 1012.5
20200401015016 79 115 9.0 15.0 0.00 0.00 0.00 50 1012.4
20200401014506 79 93 9.0 18.0 0.00 0.00 0.00 49 1012.4
20200401014010 79 92 10.0 18.0 0.00 0.00 0.00 48 1012.3
20200401013511 80 83 7.0 15.0 0.00 0.00 0.00 46 1012.1
20200401013015 80 73 6.0 16.0 0.00 0.00 0.00 45 1012.0
20200401012508 80 86 10.0 15.0 0.00 0.00 0.00 44 1012.0
20200401012006 81 97 8.0 15.0 0.00 0.00 0.00 43 1011.9
20200401011505 81 97 7.0 12.0 0.00 0.00 0.00 42 1011.8
20200401011008 81 90 7.0 13.0 0.00 0.00 0.00 41 1011.7
20200401010505 82 78 5.0 14.0 0.00 0.00 0.00 40 1011.6
20200401010013 82 100 7.0 15.0 0.00 0.00 0.00 40 1011.5
20200401005504 82 84 7.0 16.0 0.00 0.00 0.00 38 1011.5
20200401005010 82 97 9.0 16.0 0.00 0.00 0.00 38 1011.4
20200401004538 83 86 8.0 16.0 0.00 0.00 0.00 37 1011.3
20200401004004 83 98 9.0 16.0 0.00 0.00 0.00 37 1011.1
20200401003504 83 88 11.0 16.0 0.00 0.00 0.00 37 1010.9
20200401003007 84 53 9.0 17.0 0.00 0.00 0.00 37 1010.8
20200401002505 84 96 9.0 17.0 0.00 0.00 0.00 37 1010.8
20200401002004 85 107 8.0 16.0 0.00 0.00 0.00 36 1010.8
20200401001505 85 95 9.0 15.0 0.00 0.00 0.00 35 1010.8
20200401001003 85 91 8.0 15.0 0.00 0.00 0.00 35 1010.8
20200401000502 86 94 8.0 16.0 0.00 0.00 0.00 34 1010.7
20200401000009 87 94 7.0 16.0 0.00 0.00 0.00 34 1010.5
20200331235502 88 109 8.0 18.0 0.00 0.00 0.00 33 1010.4
20200331235005 90 94 9.0 18.0 0.00 0.00 0.00 29 1010.3
20200331234503 92 90 2.0 6.0 0.00 0.00 0.00 16 1010.2
20200331234002 92 79 2.0 6.0 0.00 0.00 0.00 16 1010.1
20200331233504 92 91 3.0 7.0 0.00 0.00 0.00 16 1010.1
20200331233008 92 10 3.0 9.0 0.00 0.00 0.00 16 1010.1
20200331232509 92 30 3.0 9.0 0.00 0.00 0.00 16 1010.1
20200331232002 92 22 5.0 10.0 0.00 0.00 0.00 16 1010.1
20200331231502 92 22 6.0 10.0 0.00 0.00 0.00 16 1010.0
20200331231002 92 355 4.0 10.0 0.00 0.00 0.00 16 1010.0
20200331230508 93 9 5.0 10.0 0.00 0.00 0.00 15 1010.0
20200331230002 93 15 6.0 9.0 0.00 0.00 0.00 15 1010.0
20200331225604 93 5 3.0 9.0 0.00 0.00 0.00 16 1010.0
20200331225102 93 32 4.0 11.0 0.00 0.00 0.00 15 1010.0
20200331224632 92 5 7.0 11.0 0.00 0.00 0.00 15 1010.0
20200331224107 92 26 4.0 12.0 0.00 0.00 0.00 15 1010.1
20200331223559 92 17 4.0 12.0 0.00 0.00 0.00 16 1010.1
20200331223257 92 5 7.0 12.0 0.00 0.00 0.00 16 1010.1
20200331222605 92 22 4.0 12.0 0.00 0.00 0.00 16 1010.1
20200331222058 91 5 5.0 12.0 0.00 0.00 0.00 16 1010.2
20200331221655 92 54 3.0 8.0 0.00 0.00 0.00 16 1010.2
20200331221058 92 360 4.0 8.0 0.00 0.00 0.00 16 1010.2
20200331220604 92 36 4.0 9.0 0.00 0.00 0.00 16 1010.2
20200331220114 92 53 4.0 10.0 0.00 0.00 0.00 16 1010.3
20200331215607 92 57 2.0 9.0 0.00 0.00 0.00 16 1010.2
20200331215057 92 49 2.0 7.0 0.00 0.00 0.00 16 1010.3
20200331214619 92 84 3.0 9.0 0.00 0.00 0.00 16 1010.3
20200331214058 92 40 2.0 12.0 0.00 0.00 0.00 16 1010.3
20200331213600 92 51 6.0 13.0 0.00 0.00 0.00 16 1010.4
20200331213147 92 60 8.0 13.0 0.00 0.00 0.00 16 1010.3
20200331212556 92 59 6.0 11.0 0.00 0.00 0.00 16 1010.4
20200331212102 92 5 0.0 6.0 0.00 0.00 0.00 16 1010.4
20200331211710 92 360 4.0 9.0 0.00 0.00 0.00 16 1010.4
20200331211056 92 47 3.0 9.0 0.00 0.00 0.00 16 1010.5
20200331210555 92 42 1.0 11.0 0.00 0.00 0.00 16 1010.5
20200331210228 92 13 6.0 11.0 0.00 0.00 0.00 16 1010.6
20200331205554 91 53 5.0 12.0 0.00 0.00 0.00 17 1010.7
20200331205100 92 350 5.0 13.0 0.00 0.00 0.00 18 1010.7
20200331204622 91 9 6.0 10.0 0.00 0.00 0.00 19 1010.7
20200331204055 91 5 4.0 11.0 0.00 0.00 0.00 18 1010.8
20200331203554 92 330 6.0 11.0 0.00 0.00 0.00 18 1011.0
20200331203148 92 25 6.0 12.0 0.00 0.00 0.00 18 1011.0
20200331202555 92 350 7.0 12.0 0.00 0.00 0.00 18 1011.0
20200331202055 92 30 6.0 12.0 0.00 0.00 0.00 18 1011.1
20200331201618 92 25 6.0 15.0 0.00 0.00 0.00 18 1011.1
20200331201059 91 5 7.0 15.0 0.00 0.00 0.00 18 1011.2
20200331200553 91 5 6.0 11.0 0.00 0.00 0.00 18 1011.2
20200331200143 91 15 7.0 14.0 0.00 0.00 0.00 17 1011.4
20200331195553 92 33 7.0 14.0 0.00 0.00 0.00 16 1011.4
20200331195057 92 37 8.0 14.0 0.00 0.00 0.00 16 1011.5
20200331194617 92 26 6.0 12.0 0.00 0.00 0.00 16 1011.5
20200331194052 92 34 5.0 13.0 0.00 0.00 0.00 16 1011.7
20200331193559 92 335 7.0 13.0 0.00 0.00 0.00 15 1011.7
20200331193118 92 11 5.0 11.0 0.00 0.00 0.00 16 1011.7
20200331192550 92 15 4.0 12.0 0.00 0.00 0.00 16 1011.7
20200331192053 91 24 6.0 12.0 0.00 0.00 0.00 16 1011.7
20200331191650 91 31 5.0 11.0 0.00 0.00 0.00 16 1011.9
20200331191053 91 28 4.0 13.0 0.00 0.00 0.00 16 1011.9
20200331190550 91 331 7.0 13.0 0.00 0.00 0.00 16 1012.0
20200331190219 91 347 5.0 13.0 0.00 0.00 0.00 16 1012.1
20200331185549 91 355 8.0 14.0 0.00 0.00 0.00 16 1012.2
20200331185049 91 31 9.0 14.0 0.00 0.00 0.00 15 1012.2
20200331184615 91 34 5.0 14.0 0.00 0.00 0.00 16 1012.3
20200331184123 91 5 8.0 15.0 0.00 0.00 0.00 15 1012.4
20200331183547 91 45 11.0 15.0 0.00 0.00 0.00 16 1012.5
20200331183130 91 26 8.0 17.0 0.00 0.00 0.00 15 1012.5
20200331182552 91 48 9.0 17.0 0.00 0.00 0.00 16 1012.6
20200331182047 90 348 7.0 13.0 0.00 0.00 0.00 16 1012.6
20200331181602 90 12 7.0 16.0 0.00 0.00 0.00 16 1012.6
20200331181053 90 355 8.0 16.0 0.00 0.00 0.00 17 1012.8
20200331180552 90 34 8.0 18.0 0.00 0.00 0.00 16 1012.8
20200331180147 90 348 8.0 18.0 0.00 0.00 0.00 17 1012.9
20200331175605 90 17 9.0 16.0 0.00 0.00 0.00 17 1012.9
20200331175050 90 41 7.0 22.0 0.00 0.00 0.00 16 1013.0
20200331174608 90 47 13.0 22.0 0.00 0.00 0.00 16 1013.1
20200331174054 91 32 8.0 16.0 0.00 0.00 0.00 17 1013.0
20200331173609 91 350 8.0 16.0 0.00 0.00 0.00 18 1013.1
20200331173103 90 30 9.0 18.0 0.00 0.00 0.00 19 1013.1
20200331172547 90 15 9.0 18.0 0.00 0.00 0.00 18 1013.2
20200331172041 89 34 11.0 20.0 0.00 0.00 0.00 19 1013.2
20200331171608 89 331 10.0 20.0 0.00 0.00 0.00 20 1013.2
20200331171040 90 355 11.0 18.0 0.00 0.00 0.00 21 1013.1
20200331170537 89 13 10.0 19.0 0.00 0.00 0.00 20 1013.3
20200331170059 89 13 11.0 19.0 0.00 0.00 0.00 23 1013.3
20200331165535 88 50 11.0 18.0 0.00 0.00 0.00 24 1013.3
20200331165034 88 12 12.0 18.0 0.00 0.00 0.00 27 1013.3
20200331164619 87 21 11.0 17.0 0.00 0.00 0.00 29 1013.3
20200331164042 87 37 12.0 19.0 0.00 0.00 0.00 32 1013.3
20200331163531 87 21 12.0 19.0 0.00 0.00 0.00 34 1013.4
20200331163049 86 5 8.0 19.0 0.00 0.00 0.00 36 1013.4
20200331162532 86 5 12.0 19.0 0.00 0.00 0.00 38 1013.4
20200331162027 86 16 9.0 16.0 0.00 0.00 0.00 41 1013.4
20200331161527 85 24 9.0 15.0 0.00 0.00 0.00 43 1013.4
20200331161028 85 5 9.0 14.0 0.00 0.00 0.00 45 1013.5
20200331160523 85 47 6.0 16.0 0.00 0.00 0.00 46 1013.4
20200331160035 84 5 8.0 16.0 0.00 0.00 0.00 48 1013.5
20200331155535 84 23 10.0 15.0 0.00 0.00 0.00 53 1013.5
20200331155019 83 355 9.0 14.0 0.00 0.00 0.00 55 1013.5
20200331154523 83 34 9.0 17.0 0.00 0.00 0.00 55 1013.5
20200331154023 82 360 10.0 17.0 0.00 0.00 0.00 59 1013.4
20200331153515 81 349 8.0 14.0 0.00 0.00 0.00 64 1013.4
20200331153041 81 9 7.0 15.0 0.00 0.00 0.00 69 1013.4
20200331152516 80 29 9.0 15.0 0.00 0.00 0.00 71 1013.4
20200331152014 80 37 6.0 13.0 0.00 0.00 0.00 75 1013.3
20200331151516 79 5 6.0 12.0 0.00 0.00 0.00 76 1013.3
20200331151009 79 9 6.0 13.0 0.00 0.00 0.00 76 1013.3
20200331150508 79 20 7.0 15.0 0.00 0.00 0.00 76 1013.4
20200331150013 78 26 10.0 15.0 0.00 0.00 0.00 77 1013.3
20200331145507 79 5 7.0 13.0 0.00 0.00 0.00 77 1013.3
20200331145007 79 19 6.0 11.0 0.00 0.00 0.00 77 1013.3
20200331144539 79 11 5.0 13.0 0.00 0.00 0.00 78 1013.2
20200331144004 78 13 7.0 13.0 0.00 0.00 0.00 79 1013.2
20200331143503 78 355 6.0 12.0 0.00 0.00 0.00 79 1013.2
20200331143002 78 26 6.0 11.0 0.00 0.00 0.00 80 1013.2
20200331142501 77 51 5.0 11.0 0.00 0.00 0.00 81 1013.1
20200331142059 77 26 5.0 9.0 0.00 0.00 0.00 81 1013.1
20200331141704 76 37 3.0 9.0 0.00 0.00 0.00 83 1013.1
20200331141056 76 355 4.0 8.0 0.00 0.00 0.00 84 1013.1
20200331140614 75 347 4.0 8.0 0.00 0.00 0.00 85 1013.1
20200331140158 75 349 4.0 8.0 0.00 0.00 0.00 86 1013.0
20200331135552 74 350 4.0 8.0 0.00 0.00 0.00 87 1012.9
20200331135055 74 342 3.0 6.0 0.00 0.00 0.00 88 1012.8
20200331134630 73 332 3.0 6.0 0.00 0.00 0.00 88 1012.8
20200331134049 73 355 4.0 8.0 0.00 0.00 0.00 89 1012.7
20200331133549 73 355 5.0 8.0 0.00 0.00 0.00 89 1012.7
20200331133241 73 15 2.0 5.0 0.00 0.00 0.00 90 1012.6
20200331132552 73 5 3.0 5.0 0.00 0.00 0.00 90 1012.6
20200331132054 72 11 3.0 6.0 0.00 0.00 0.00 90 1012.5
20200331131556 72 5 3.0 6.0 0.00 0.00 0.00 90 1012.4
20200331131045 72 16 2.0 6.0 0.00 0.00 0.00 90 1012.2
20200331130543 72 23 3.0 6.0 0.00 0.00 0.00 90 1012.2
20200331130134 72 24 3.0 6.0 0.00 0.00 0.00 90 1012.1
20200331125542 72 25 3.0 9.0 0.00 0.00 0.00 90 1012.0
20200331125041 72 34 3.0 9.0 0.00 0.00 0.00 90 1012.0
20200331124542 72 21 3.0 9.0 0.00 0.00 0.00 90 1011.9
20200331124051 73 34 5.0 8.0 0.00 0.00 0.00 90 1011.8
20200331123539 73 34 3.0 8.0 0.00 0.00 0.00 90 1011.7
20200331123104 73 28 4.0 7.0 0.00 0.00 0.00 90 1011.6
20200331122539 73 22 4.0 9.0 0.00 0.00 0.00 90 1011.7
20200331122046 73 32 4.0 9.0 0.00 0.00 0.00 90 1011.7
20200331121632 73 15 4.0 8.0 0.00 0.00 0.00 90 1011.6
20200331121037 73 38 4.0 8.0 0.00 0.00 0.00 90 1011.5
20200331120537 73 355 5.0 8.0 0.00 0.00 0.00 90 1011.5
20200331120116 73 19 3.0 6.0 0.00 0.00 0.00 89 1011.3
20200331115536 73 22 4.0 6.0 0.00 0.00 0.00 89 1011.1
20200331115033 73 19 3.0 6.0 0.00 0.00 0.00 89 1011.0
20200331114637 73 24 2.0 6.0 0.00 0.00 0.00 89 1011.0
20200331114030 73 26 3.0 6.0 0.00 0.00 0.00 89 1010.9
20200331113544 73 19 4.0 6.0 0.00 0.00 0.00 90 1010.8
20200331113040 73 48 2.0 4.0 0.00 0.00 0.00 90 1010.7
20200331112531 73 34 2.0 4.0 0.00 0.00 0.00 90 1010.6
20200331112055 73 39 1.0 4.0 0.00 0.00 0.00 90 1010.6
20200331111602 73 27 2.0 4.0 0.00 0.00 0.00 90 1010.6
20200331111029 73 36 2.0 6.0 0.00 0.00 0.00 90 1010.5
20200331110540 73 40 3.0 6.0 0.00 0.00 0.00 90 1010.6
20200331110038 73 22 2.0 6.0 0.00 0.00 0.00 90 1010.5
20200331105526 73 13 3.0 6.0 0.00 0.00 0.00 91 1010.5
20200331105026 73 28 3.0 5.0 0.00 0.00 0.00 91 1010.4
20200331104626 73 32 2.0 5.0 0.00 0.00 0.00 91 1010.3
20200331104024 73 57 2.0 6.0 0.00 0.00 0.00 91 1010.2
20200331103533 73 40 3.0 6.0 0.00 0.00 0.00 91 1010.2
20200331103109 73 42 3.0 6.0 0.00 0.00 0.00 91 1010.1
20200331102525 73 59 3.0 9.0 0.00 0.00 0.00 91 1010.2
20200331102037 73 25 4.0 9.0 0.00 0.00 0.00 91 1010.1
20200331101529 73 31 5.0 8.0 0.00 0.00 0.00 91 1010.2
20200331101023 72 34 5.0 8.0 0.00 0.00 0.00 92 1010.1
20200331100527 72 22 4.0 8.0 0.00 0.00 0.00 92 1010.0
20200331100051 72 19 4.0 8.0 0.00 0.00 0.00 92 1009.9
20200331095545 72 38 3.0 8.0 0.00 0.00 0.00 92 1009.9
20200331095020 73 21 3.0 7.0 0.00 0.00 0.00 91 1009.8
20200331094623 73 19 3.0 6.0 0.00 0.00 0.00 91 1009.7
20200331094021 73 17 4.0 8.0 0.00 0.00 0.00 91 1009.8
20200331093521 73 21 3.0 8.0 0.00 0.00 0.00 92 1009.8
20200331093043 73 5 2.0 8.0 0.00 0.00 0.00 92 1009.7
20200331092520 72 19 3.0 8.0 0.00 0.00 0.00 92 1009.6
20200331092025 72 5 5.0 8.0 0.00 0.00 0.00 92 1009.7
20200331091525 72 37 5.0 8.0 0.00 0.00 0.00 92 1009.7
20200331091025 72 13 4.0 8.0 0.00 0.00 0.00 92 1009.7
20200331090521 72 5 3.0 6.0 0.00 0.00 0.00 92 1009.5
20200331090111 72 355 3.0 6.0 0.00 0.00 0.00 92 1009.5
20200331085523 72 360 3.0 6.0 0.00 0.00 0.00 92 1009.5
20200331085022 72 350 3.0 5.0 0.00 0.00 0.00 92 1009.5
20200331084516 73 9 3.0 5.0 0.00 0.00 0.00 91 1009.3
20200331084014 73 5 3.0 5.0 0.00 0.00 0.00 91 1009.3
20200331083517 73 350 2.0 4.0 0.00 0.00 0.00 91 1009.3
20200331083056 73 340 2.0 3.0 0.00 0.00 0.00 91 1009.1
20200331082514 73 86 1.0 3.0 0.00 0.00 0.00 91 1008.9
20200331082017 73 86 1.0 3.0 0.00 0.00 0.00 90 1009.0
20200331081015 73 99 0.0 0.0 0.00 0.00 0.00 90 1008.9
20200331080539 73 111 0.0 0.0 0.00 0.00 0.00 90 1008.8
20200331080018 73 111 0.0 2.0 0.00 0.00 0.00 90 1008.7
20200331075511 73 111 0.0 3.0 0.00 0.00 0.00 89 1008.7
20200331075023 73 111 1.0 3.0 0.00 0.00 0.00 89 1008.7